Regional Weather Roundup
Issued by NWS Albany, NY

Home | Current Version | Previous Version | Text Only | Print | Product List | Glossary On
Versions: 1 2 3 4 5 6 7 8 9 10 11 12 13 14 15 16 17 18 19 20 21 22 23 24 25 26 27 28 29 30 31 32 33 34 35 36 37 38 39 40 41 42 43 44 45 46 47 48 49 50
000
ASUS41 KALY 090810
RWRALY

NEW YORK STATE HOURLY WEATHER ROUNDUP
NATIONAL WEATHER SERVICE ALBANY NY
300 AM EST TUE FEB 09 2016

NOTE: "FAIR" INDICATES FEW OR NO CLOUDS BELOW 12,000 FEET WITH NO
SIGNIFICANT WEATHER AND/OR NO OBSTRUCTIONS TO VISIBILITY.

NYZ032-033-038>043-046>054-057>066-NYZ062>081-090900-
EAST


CITY           SKY/WX    TMP DP  RH WIND       PRES   REMARKS
ALBANY         LGT SNOW  25  21  85 CALM      29.72F FOG
GLENS FALLS    CLOUDY    21  18  88 CALM      29.72F
POUGHKEEPSIE   LGT SNOW  26  21  81 CALM      29.73S
NEWBURGH       LGT SNOW  23  21  93 E7        29.71F WCI  15
MONTGOMERY     LGT SNOW  25  21  85 NE6       29.70F FOG     WCI  18
WHITE PLAINS   CLOUDY    23  19  85 NE6       29.71F WCI  16
ISLIP          CLOUDY    26  20  77 E5        29.71F WCI  20
NEW YORK CITY  FLURRIES  28  22  78 E8        29.73F WCI  20
CENTRAL PARK   CLOUDY    28  22  78 SE7       29.74F WCI  21
$$

NYZ005>009-017-018-044>046-055-056-090900-
CENTRAL


CITY           SKY/WX    TMP DP  RH WIND       PRES   REMARKS
FULTON         LGT SNOW  29  24  82 SE8       29.60F WCI  21
SYRACUSE       LGT SNOW  25  24  96 E13       29.61F FOG     WCI  14
ROME           LGT SNOW  24  21  88 E9        29.67F FOG     WCI  14
ELMIRA         CLOUDY    32  29  88 VRB3      29.56F
BINGHAMTON     FLURRIES  25  23  92 SE9       29.55F WCI  15
MONTICELLO     CLOUDY    21  21 100 E7        29.63F WCI  13
$$

NYZ026>034-041>043-090900-
NORTH


CITY           SKY/WX    TMP DP  RH WIND       PRES   REMARKS
WATERTOWN      LGT SNOW  25  22  88 NE6       29.63F VSB 1   WCI  18
FORT DRUM      NOT AVBL
MASSENA        LGT SNOW  18  13  80 E15       29.75F WCI   4
SARANAC LAKE   CLOUDY    16  13  88 NE5       29.59F FOG     WCI   9
PLATTSBURGH    LGT SNOW  20  15  81 N10       29.74F WCI   9
$$

NYZ001>004-010>016-019>021-090900-
WEST


CITY           SKY/WX    TMP DP  RH WIND       PRES   REMARKS
NIAGARA FALLS  CLOUDY    35  32  88 SE7       29.50F FOG     WCI  29
BUFFALO        CLOUDY    35  32  88 SW13      29.51S WCI  26
DUNKIRK        CLOUDY    35  31  85 SW12      29.53S WCI  27
JAMESTOWN      CLOUDY    30  28  93 SW6       29.48S WCI  24
WELLSVILLE     CLOUDY    32  26  78 S10G17    29.49S WCI  24
ROCHESTER      LGT SNOW  33  31  92 SE9       29.54F FOG     WCI  25
PENN YAN       CLOUDY    32  28  85 SE6       29.54F WCI  26
$$

             KEY
       WCI = WIND CHILL INDEX
       VSB = VISIBILITY
       HX  = HEAT INDEX
$$



USA.gov is the U.S. government's official web portal to all federal, state and local government web resources and services.